Location: *
(45.5667°S, 177.5167°W)
Time: 22:15:16
(UTC+00:00)

ADEOS - Pass Details

Date: 29 May 2022
Orbit: 792 x 795 km, 98.9° (Epoch: 24 June)

Event Time Altitude Azimuth Distance (km) Brightness Sun altitude
Exits shadow 06:03:11 - 167° (SSE) 3,108 6.4 -17.9°
Reaches altitude 10° 06:04:57 10° 167° (SSE) 2,402 5.8 -18.2°
Maximum altitude 06:10:17 84° 254° (WSW) 816 3.6 -19.1°
Drops below altitude 10° 06:15:32 10° 341° (NNW) 2,371 6.4 -20.0°
Sets 06:17:51 0° 341° (NNW) 3,293 7.2 -20.4°
